MPEC 2008-G86 : 2008 GC110

The following Minor Planet Electronic Circular may be linked-to from your own Web pages, but must not otherwise be redistributed electronically.


Read MPEC 2008-G85 Read MPEC 2008-G87


M.P.E.C. 2008-G86                                Issued 2008 Apr. 15, 18:57 UT

     The Minor Planet Electronic Circulars contain information on unusual
         minor planets and routine data on comets.  They are published
   on behalf of Commission 20 of the International Astronomical Union by the
          Minor Planet Center, Smithsonian Astrophysical Observatory,
                          Cambridge, MA 02138, U.S.A.

             Prepared using the Tamkin Foundation Computer Network

                              MPC@CFA.HARVARD.EDU
          URL http://www.cfa.harvard.edu/iau/mpc.html  ISSN 1523-6714

                                  2008 GC110

Observations:
     K08GB0C* C2008 04 14.26176 14 23 00.95 -13 41 19.5          19.9 V EG086691
     K08GB0C  C2008 04 14.27937 14 22 59.44 -13 40 10.1          19.7 V EG086691
     K08GB0C  C2008 04 14.29698 14 22 57.91 -13 39 00.3          20.7 V EG086691
     K08GB0C tC2008 04 14.34688 14 22 53.57 -13 35 42.8          20.1 V EG086291
     K08GB0C tC2008 04 14.35073 14 22 53.26 -13 35 27.6          20.1 V EG086291
     K08GB0C tC2008 04 14.35462 14 22 52.86 -13 35 12.5          20.3 V EG086291
     K08GB0C  C2008 04 14.37938 14 22 50.18 -13 33 37.2          19.5 R EG086734
     K08GB0C  C2008 04 14.38245 14 22 49.93 -13 33 24.7          20.3 R EG086734
     K08GB0C  C2008 04 14.38551 14 22 49.67 -13 33 11.7          19.6 R EG086734
     K08GB0C  C2008 04 14.38703 14 22 49.52 -13 33 05.6          19.8 R EG086734
     K08GB0C tC2008 04 14.43090 14 22 46.22 -13 30 07.5          20.6 V EG086291
     K08GB0C tC2008 04 14.43475 14 22 45.86 -13 29 51.5          20.7 V EG086291
     K08GB0C tC2008 04 14.44608 14 22 44.93 -13 29 06.2          20.4 V EG086291
     K08GB0C  C2008 04 15.19836814 21 51.53 -12 38 41.2          19.9 V EG086H55
     K08GB0C  C2008 04 15.20439414 21 51.02 -12 38 17.4          19.9 V EG086H55
     K08GB0C  C2008 04 15.21058314 21 50.45 -12 37 52.1          20.1 V EG086H55
     K08GB0C  C2008 04 15.25360 14 21 47.41 -12 34 53.2          20.0 R EG086448
     K08GB0C  C2008 04 15.28095 14 21 44.97 -12 33 01.6          19.6 R EG086448
     K08GB0C  C2008 04 15.30431 14 21 42.83 -12 31 26.5          19.8 R EG086448
     K08GB0C  C2008 04 15.38645 14 21 35.56 -12 25 50.4          19.6 V EG086G96
     K08GB0C  C2008 04 15.39218 14 21 35.06 -12 25 27.0          19.5 V EG086G96
     K08GB0C  C2008 04 15.39784 14 21 34.52 -12 25 03.8          19.5 V EG086G96
     K08GB0C  C2008 04 15.40347 14 21 34.02 -12 24 40.7          19.4 V EG086G96

Observer details:
291 LPL/Spacewatch II.  Observer R. S. McMillan.  1.8-m f/2.7 reflector + CCD.
448 Desert Moon Observatory.  Observer B. L. Stevens.  0.3-m
    Schmidt-Cassegrain + CCD.
691 Steward Observatory, Kitt Peak.  Observer R. S. McMillan.  0.9-m f/3
    reflector + CCD.
734 Farpoint Observatory.  Observer G. Hug.  0.7-m reflector + CCD.
G96 Mt. Lemmon Survey.  Observer E. Beshore.  Measurers E. C. Beshore,
    A. Boattini, G. J. Garradd, A. R. Gibbs, A. D. Grauer, R. E. Hill,
    R. A. Kowalski, S. M. Larson, R. H. McNaught.  1.5-m reflector + CCD.
H55 Astronomical Research Observatory, Charleston.  Observer R. Holmes.
    Measurer K. Flanary.  0.81-m f/4.0 astrograph + CCD.

Orbital elements:
2008 GC110                                               Earth MOID = 0.0405 AU
Epoch 2008 May 14.0 TT = JDT 2454600.5                  MPC
M 253.82751              (2000.0)            P               Q
n   0.86443197     Peri.  143.58512     +0.97743249     +0.18184997
a   1.0913955      Node   206.55189     -0.19964663     +0.96152066
e   0.1505332      Incl.   13.91537     +0.06904311     +0.20593350
P   1.14           H   22.3           G   0.15           U   9
Residuals in seconds of arc
080414 691  0.2-  0.1-    080414 734  0.2+  0.2-    080415 448  0.0   0.4-
080414 691  0.1-  0.1-    080414 734  0.1-  0.1-    080415 448  0.2+  0.1+
080414 691  0.2-  0.2+    080414 291  0.0   0.0     080415 448  0.3-  0.1+
080414 291  0.3+  0.0     080414 291  0.4-  0.6+    080415 G96  0.0   0.3+
080414 291  0.7+  0.1-    080414 291  0.2+  0.5+    080415 G96  0.2+  0.2+
080414 291  0.2-  0.4-    080415 H55  0.1+  0.0     080415 G96  0.2-  0.1+
080414 734  0.0   1.1-    080415 H55  0.3+  0.6-    080415 G96  0.1-  0.1+
080414 734  0.2+  0.9-    080415 H55  0.1-  0.4-

Ephemeris:
2008 GC110               a,e,i = 1.09, 0.15, 14                  q = 0.9271
Date    TT    R. A. (2000) Decl.     Delta      r     Elong.  Phase     V
2008 04 14    14 23.31   -13 58.1    0.215    1.213   166.2    11.4    20.1
2008 04 24    14 09.25   -01 41.6    0.194    1.197   168.8     9.4    19.8
2008 05 04    13 53.46   +11 23.0    0.193    1.179   149.8    25.5    20.2
2008 05 14    13 40.14   +22 15.4    0.206    1.158   131.8    40.6    20.8
2008 05 24    13 32.14   +29 52.0    0.228    1.136   117.5    52.2    21.3
2008 06 03    13 29.97   +34 47.0    0.252    1.113   106.5    60.9    21.7

Sonia Keys                   (C) Copyright 2008 MPC           M.P.E.C. 2008-G86

Read MPEC 2008-G85 Read MPEC 2008-G87


Our Web policy. Index to the CBAT/MPC/ICQ pages.

MPC

Valid HTML 4.01!